BAW974G EGLL-EDDH

Flight info

Callsign BAW974G
Flight time N/A
Altitude 37000
Route BPK Q295 SOMVA DCT MAVAS DCT VALAM DCT GASTU DCT OSTOR T904 RIBSO RIBSO3P
Aircraft A21N/M-SDE2E3FGHIRWXY/LB1

Departure

Time N/A
Airport London Heathrow Airport (EGLL)

Arrival

Time 2026-04-23 20:26
Airport Hamburg Helmut Schmidt Airport (EDDH)
Time Latitude Longitude Altitude Speed Heading
2026-04-23 19:54 53.24355 6.27338 35364 ft 461 kts 70°
2026-04-23 19:54 53.25512 6.32276 35360 ft 461 kts 70°
2026-04-23 19:55 53.27829 6.42202 35365 ft 462 kts 70°
2026-04-23 19:55 53.30135 6.52134 35362 ft 453 kts 70°
2026-04-23 19:56 53.32383 6.61851 35360 ft 452 kts 70°
2026-04-23 19:56 53.34636 6.71652 35352 ft 451 kts 71°
2026-04-23 19:57 53.36585 6.81590 35346 ft 452 kts 74°
2026-04-23 19:57 53.38427 6.91534 35348 ft 450 kts 74°
2026-04-23 19:58 53.40289 7.01534 35345 ft 450 kts 73°
2026-04-23 19:58 53.42157 7.11538 35027 ft 452 kts 73°
2026-04-23 19:58 53.43082 7.16500 34728 ft 448 kts 73°
2026-04-23 19:59 53.44009 7.21492 34428 ft 446 kts 73°
2026-04-23 19:59 53.44930 7.26450 34153 ft 444 kts 73°
2026-04-23 19:59 53.45831 7.31320 33896 ft 443 kts 73°
2026-04-23 19:59 53.46744 7.36270 33634 ft 444 kts 73°
2026-04-23 20:00 53.47653 7.41199 33304 ft 445 kts 73°
2026-04-23 20:00 53.48557 7.46128 32786 ft 447 kts 73°
2026-04-23 20:00 53.49471 7.51105 32205 ft 446 kts 73°
2026-04-23 20:00 53.50383 7.56100 31605 ft 446 kts 73°
2026-04-23 20:01 53.51279 7.61034 30906 ft 448 kts 73°
2026-04-23 20:01 53.52188 7.66025 30201 ft 448 kts 74°
2026-04-23 20:01 53.53097 7.71039 29545 ft 447 kts 73°
2026-04-23 20:01 53.54002 7.76051 28842 ft 448 kts 73°
2026-04-23 20:02 53.54900 7.81044 28082 ft 449 kts 73°
2026-04-23 20:02 53.55793 7.86019 27435 ft 448 kts 73°
2026-04-23 20:02 53.56686 7.91023 26908 ft 443 kts 72°
2026-04-23 20:02 53.57565 7.95950 26411 ft 439 kts 72°
2026-04-23 20:03 53.58438 8.00837 25913 ft 435 kts 72°
2026-04-23 20:03 53.59297 8.05656 25437 ft 430 kts 72°
2026-04-23 20:03 53.60148 8.10451 24922 ft 427 kts 72°
2026-04-23 20:03 53.60990 8.15215 24425 ft 424 kts 72°
2026-04-23 20:04 53.61817 8.19900 23929 ft 422 kts 72°
2026-04-23 20:04 53.62652 8.24633 23442 ft 420 kts 72°
2026-04-23 20:04 53.63470 8.29303 22925 ft 418 kts 72°
2026-04-23 20:04 53.64278 8.33919 22419 ft 416 kts 71°
2026-04-23 20:05 53.65091 8.38584 21919 ft 413 kts 71°
2026-04-23 20:05 53.65895 8.43200 21431 ft 411 kts 71°
2026-04-23 20:05 53.66687 8.47757 20951 ft 408 kts 71°
2026-04-23 20:05 53.67482 8.52344 20462 ft 406 kts 71°
2026-04-23 20:06 53.68261 8.56847 19989 ft 403 kts 71°
2026-04-23 20:06 53.69045 8.61400 19490 ft 400 kts 71°
2026-04-23 20:06 53.69818 8.65900 19001 ft 398 kts 72°
2026-04-23 20:06 53.70578 8.70331 18510 ft 396 kts 72°
2026-04-23 20:07 53.71334 8.74744 18035 ft 393 kts 72°
2026-04-23 20:07 53.72083 8.79143 17550 ft 391 kts 71°
2026-04-23 20:07 53.72824 8.83503 17062 ft 388 kts 71°
2026-04-23 20:07 53.73564 8.87862 16575 ft 386 kts 71°
2026-04-23 20:08 53.74297 8.92192 16088 ft 384 kts 71°
2026-04-23 20:08 53.75025 8.96495 15601 ft 381 kts 71°
2026-04-23 20:08 53.75745 9.00775 15114 ft 379 kts 71°
2026-04-23 20:08 53.76465 9.05058 14624 ft 377 kts 71°
2026-04-23 20:09 53.77176 9.09307 14144 ft 374 kts 71°
2026-04-23 20:09 53.77874 9.13469 13684 ft 372 kts 71°
2026-04-23 20:09 53.78576 9.17680 13159 ft 371 kts 71°
2026-04-23 20:09 53.79267 9.21837 12668 ft 368 kts 70°
2026-04-23 20:10 53.79950 9.25957 12194 ft 366 kts 70°
2026-04-23 20:10 53.80635 9.30091 11691 ft 363 kts 70°
2026-04-23 20:10 53.81295 9.34182 11212 ft 359 kts 71°
2026-04-23 20:10 53.81849 9.38248 10717 ft 357 kts 73°
2026-04-23 20:11 53.82335 9.42315 10327 ft 348 kts 74°
2026-04-23 20:11 53.82790 9.46237 10244 ft 330 kts 73°
2026-04-23 20:11 53.83218 9.49901 10242 ft 312 kts 73°
2026-04-23 20:11 53.83635 9.53416 10199 ft 298 kts 73°
2026-04-23 20:12 53.84041 9.56806 10071 ft 294 kts 72°
2026-04-23 20:12 53.84451 9.60199 9865 ft 293 kts 72°
2026-04-23 20:12 53.84850 9.63521 9618 ft 287 kts 72°
2026-04-23 20:12 53.85243 9.66817 9362 ft 280 kts 73°
2026-04-23 20:13 53.85621 9.69995 9110 ft 274 kts 73°
2026-04-23 20:13 53.85992 9.73126 8855 ft 268 kts 72°
2026-04-23 20:13 53.86355 9.76193 8601 ft 263 kts 72°
2026-04-23 20:13 53.86637 9.79235 8346 ft 264 kts 80°
2026-04-23 20:14 53.86612 9.82334 8098 ft 268 kts 89°
2026-04-23 20:14 53.86408 9.85494 7844 ft 268 kts 91°
2026-04-23 20:14 53.86176 9.88587 7596 ft 267 kts 91°
2026-04-23 20:14 53.85941 9.91706 7344 ft 266 kts 91°
2026-04-23 20:15 53.85714 9.94794 7228 ft 265 kts 91°
2026-04-23 20:15 53.85489 9.97902 7222 ft 266 kts 91°
2026-04-23 20:15 53.85267 10.00994 7220 ft 266 kts 90°
2026-04-23 20:15 53.85042 10.04132 7205 ft 266 kts 90°
2026-04-23 20:16 53.84819 10.07219 7227 ft 266 kts 91°
2026-04-23 20:16 53.84595 10.10328 7214 ft 266 kts 90°
2026-04-23 20:16 53.84370 10.13436 7231 ft 266 kts 91°
2026-04-23 20:16 53.84148 10.16532 7099 ft 267 kts 89°
2026-04-23 20:17 53.84263 10.19554 6806 ft 251 kts 62°
2026-04-23 20:17 53.85142 10.21952 6540 ft 239 kts 42°
2026-04-23 20:17 53.86235 10.24063 6261 ft 238 kts 41°
2026-04-23 20:17 53.87326 10.26183 5978 ft 237 kts 42°
2026-04-23 20:18 53.88391 10.28294 5698 ft 236 kts 43°
2026-04-23 20:18 53.89453 10.30429 5418 ft 235 kts 43°
2026-04-23 20:18 53.90464 10.32583 5126 ft 238 kts 52°
2026-04-23 20:18 53.90955 10.35293 4831 ft 253 kts 82°
2026-04-23 20:19 53.90572 10.38231 4544 ft 265 kts 114°
2026-04-23 20:19 53.89346 10.40588 4362 ft 269 kts 145°
2026-04-23 20:19 53.87631 10.41684 4233 ft 268 kts 176°
2026-04-23 20:19 53.85801 10.41367 4131 ft 262 kts 200°
2026-04-23 20:20 53.84162 10.40199 4010 ft 257 kts 213°
2026-04-23 20:20 53.82666 10.38577 3954 ft 252 kts 226°
2026-04-23 20:20 53.81445 10.36529 3959 ft 247 kts 237°
2026-04-23 20:20 53.80406 10.34239 3964 ft 246 kts 240°
2026-04-23 20:21 53.79379 10.31919 3962 ft 246 kts 239°
2026-04-23 20:21 53.78323 10.29642 3960 ft 247 kts 238°
2026-04-23 20:21 53.77225 10.27378 3970 ft 248 kts 237°
2026-04-23 20:21 53.76129 10.25175 3878 ft 246 kts 237°
2026-04-23 20:22 53.75024 10.22974 3588 ft 243 kts 237°
2026-04-23 20:22 53.73948 10.20830 3260 ft 242 kts 237°
2026-04-23 20:22 53.72866 10.18665 2928 ft 241 kts 238°
2026-04-23 20:22 53.71806 10.16547 2599 ft 229 kts 238°
2026-04-23 20:23 53.70813 10.14554 2333 ft 219 kts 238°
2026-04-23 20:23 53.69862 10.12646 2081 ft 205 kts 239°
2026-04-23 20:23 53.68988 10.10880 1766 ft 192 kts 239°
2026-04-23 20:23 53.68158 10.09206 1487 ft 180 kts 239°
2026-04-23 20:24 53.67381 10.07639 1257 ft 165 kts 239°
2026-04-23 20:24 53.66676 10.06213 1045 ft 152 kts 238°
2026-04-23 20:24 53.66032 10.04911 828 ft 143 kts 238°
2026-04-23 20:24 53.65412 10.03645 647 ft 140 kts 238°
2026-04-23 20:25 53.64791 10.02385 476 ft 138 kts 236°
2026-04-23 20:25 53.64182 10.01140 289 ft 135 kts 236°
2026-04-23 20:25 53.63588 9.99924 128 ft 133 kts 234°
2026-04-23 20:25 53.63030 9.98776 62 ft 105 kts 234°
2026-04-23 20:26 53.62758 9.98226 62 ft 17 kts 232°